Location: Arrodets-la-Barthe
(43.0306°N, 0.2829°E)
Time: 12:15:44
(UTC+00:00)

USA 215 - Pass Details

Date: 24 October 2021
Orbit: 1099 x 1109 km, 123.0° (Epoch: 20 November)

Event Time Altitude Azimuth Distance (km) Brightness Sun altitude
Exits shadow 17:21:14 - 48° (NE) 3,964 5.6 -4.2°
Rises 17:21:20 0° 48° (NE) 3,923 5.6 -4.3°
Reaches altitude 10° 17:23:50 10° 45° (NE) 2,964 5.0 -4.7°
Maximum altitude 17:30:18 67° 325° (NW) 1,189 3.6 -5.9°
Drops below altitude 10° 17:36:47 10° 245° (WSW) 2,961 7.0 -7.0°
Sets 17:39:16 0° 242° (WSW) 3,918 7.8 -7.5°
